COSMOS 1953

Last updated on Wed Jul 02 2025 00:02:14 GMT+0000 (Coordinated Universal Time)

1 19210U 88050A 25182.12905204 .00004187 00000+0 17025-3 0 9992 2 19210 82.5094 50.4055 0010952 294.3517 65.6576 15.24211088999420
UTC large
Height (km)
Speed (km/s)
/
Latitude / Longitude
Inclination (degrees)
Orbital Period (minutes)
Azimuth
Elevation
Range (km)
Doppler Factor

Next 0 passes for location: London (51.5072 / 0.1276)

Sorry there are no passes over London.